| time (UTC) | temp F | wind direction | speed MPH | gust MPH | rain 1hr in | rain 24hr in | rain mn in | humidity % | barometer mb |
| 20260905163211 | 75 | 19 | 8.0 | 16.0 | 0.00 | 0.00 | 0.00 | 55 | 1018.2 |
| 20260905162708 | 75 | 16 | 8.0 | 18.0 | 0.00 | 0.00 | 0.00 | 54 | 1018.3 |
| 20260905162215 | 75 | 314 | 10.0 | 18.0 | 0.00 | 0.00 | 0.00 | 54 | 1018.2 |
| 20260905161716 | 75 | 348 | 11.0 | 18.0 | 0.00 | 0.00 | 0.00 | 54 | 1018.2 |
| 20260905161207 | 75 | 5 | 10.0 | 18.0 | 0.00 | 0.00 | 0.00 | 53 | 1018.1 |
| 20260905160718 | 76 | 339 | 10.0 | 18.0 | 0.00 | 0.00 | 0.00 | 53 | 1018.0 |
| 20260905160219 | 76 | 334 | 10.0 | 18.0 | 0.00 | 0.00 | 0.00 | 53 | 1018.0 |
| 20260905155707 | 76 | 325 | 9.0 | 18.0 | 0.00 | 0.00 | 0.00 | 52 | 1017.9 |
| 20260905155219 | 76 | 349 | 10.0 | 18.0 | 0.00 | 0.00 | 0.00 | 51 | 1017.9 |
| 20260905154715 | 77 | 335 | 10.0 | 17.0 | 0.00 | 0.00 | 0.00 | 50 | 1018.0 |
| 20260905154215 | 77 | 316 | 8.0 | 15.0 | 0.00 | 0.00 | 0.00 | 49 | 1017.9 |
| 20260905153206 | 77 | 300 | 8.0 | 17.0 | 0.00 | 0.00 | 0.00 | 49 | 1017.8 |
| 20260905152210 | 77 | 298 | 10.0 | 17.0 | 0.00 | 0.00 | 0.00 | 47 | 1017.8 |
| 20260905151709 | 78 | 348 | 10.0 | 17.0 | 0.00 | 0.00 | 0.00 | 46 | 1017.7 |
| 20260905151215 | 78 | 340 | 9.0 | 17.0 | 0.00 | 0.00 | 0.00 | 46 | 1017.6 |
| 20260905150716 | 78 | 350 | 8.0 | 14.0 | 0.00 | 0.00 | 0.00 | 46 | 1017.6 |
| 20260905145716 | 78 | 312 | 8.0 | 18.0 | 0.00 | 0.00 | 0.00 | 44 | 1017.7 |
| 20260905145215 | 78 | 282 | 9.0 | 18.0 | 0.00 | 0.00 | 0.00 | 44 | 1017.7 |
| 20260905144708 | 78 | 308 | 9.0 | 15.0 | 0.00 | 0.00 | 0.00 | 45 | 1017.6 |
| 20260905144219 | 78 | 284 | 8.0 | 15.0 | 0.00 | 0.00 | 0.00 | 45 | 1017.6 |
| 20260905143711 | 78 | 319 | 7.0 | 15.0 | 0.00 | 0.00 | 0.00 | 46 | 1017.6 |
| 20260905143219 | 78 | 327 | 5.0 | 12.0 | 0.00 | 0.00 | 0.00 | 47 | 1017.6 |
| 20260905141712 | 77 | 17 | 7.0 | 14.0 | 0.00 | 0.00 | 0.00 | 50 | 1017.7 |
| 20260905140715 | 76 | 313 | 7.0 | 14.0 | 0.00 | 0.00 | 0.00 | 51 | 1017.8 |
| 20260905140206 | 76 | 355 | 7.0 | 13.0 | 0.00 | 0.00 | 0.00 | 51 | 1017.9 |
| 20260905135706 | 76 | 344 | 7.0 | 14.0 | 0.00 | 0.00 | 0.00 | 51 | 1018.0 |
| 20260905135243 | 76 | 298 | 9.0 | 19.0 | 0.00 | 0.00 | 0.00 | 52 | 1018.0 |
| 20260905134710 | 76 | 343 | 9.0 | 19.0 | 0.00 | 0.00 | 0.00 | 52 | 1018.1 |
| 20260905134216 | 76 | 300 | 10.0 | 20.0 | 0.00 | 0.00 | 0.00 | 52 | 1018.1 |
| 20260905133719 | 76 | 335 | 11.0 | 24.0 | 0.00 | 0.00 | 0.00 | 51 | 1018.1 |
| 20260905133209 | 76 | 347 | 12.0 | 24.0 | 0.00 | 0.00 | 0.00 | 50 | 1018.0 |
| 20260905132719 | 77 | 344 | 12.0 | 24.0 | 0.00 | 0.00 | 0.00 | 50 | 1017.9 |
| 20260905132216 | 77 | 319 | 12.0 | 22.0 | 0.00 | 0.00 | 0.00 | 49 | 1017.9 |
| 20260905131716 | 78 | 338 | 12.0 | 22.0 | 0.00 | 0.00 | 0.00 | 49 | 1017.8 |
| 20260905131208 | 78 | 348 | 11.0 | 19.0 | 0.00 | 0.00 | 0.00 | 49 | 1017.8 |
| 20260905130707 | 77 | 0 | 10.0 | 19.0 | 0.00 | 0.00 | 0.00 | 49 | 1017.9 |
| 20260905130214 | 77 | 26 | 10.0 | 16.0 | 0.00 | 0.00 | 0.00 | 49 | 1017.9 |
| 20260905125719 | 77 | 339 | 10.0 | 16.0 | 0.00 | 0.00 | 0.00 | 49 | 1017.9 |
| 20260905125207 | 77 | 343 | 10.0 | 21.0 | 0.00 | 0.00 | 0.00 | 48 | 1017.9 |
| 20260905124713 | 77 | 333 | 10.0 | 21.0 | 0.00 | 0.00 | 0.00 | 49 | 1017.9 |
| 20260905124216 | 77 | 290 | 9.0 | 20.0 | 0.00 | 0.00 | 0.00 | 50 | 1017.9 |
| 20260905123718 | 77 | 335 | 10.0 | 23.0 | 0.00 | 0.00 | 0.00 | 50 | 1017.9 |
| 20260905123219 | 76 | 335 | 12.0 | 23.0 | 0.00 | 0.00 | 0.00 | 49 | 1017.9 |
| 20260905122210 | 77 | 344 | 12.0 | 23.0 | 0.00 | 0.00 | 0.00 | 49 | 1017.8 |
| 20260905121717 | 77 | 326 | 12.0 | 23.0 | 0.00 | 0.00 | 0.00 | 50 | 1017.9 |
| 20260905121205 | 77 | 5 | 11.0 | 23.0 | 0.00 | 0.00 | 0.00 | 50 | 1017.9 |
| 20260905120214 | 76 | 317 | 12.0 | 23.0 | 0.00 | 0.00 | 0.00 | 52 | 1018.0 |
| 20260905115708 | 76 | 306 | 13.0 | 23.0 | 0.00 | 0.00 | 0.00 | 52 | 1017.8 |
| 20260905115216 | 76 | 333 | 12.0 | 23.0 | 0.00 | 0.00 | 0.00 | 52 | 1018.0 |
| 20260905114709 | 76 | 344 | 12.0 | 23.0 | 0.00 | 0.00 | 0.00 | 51 | 1017.9 |
| 20260905114205 | 76 | 330 | 13.0 | 23.0 | 0.00 | 0.00 | 0.00 | 51 | 1018.0 |
| 20260905113721 | 77 | 322 | 11.0 | 17.0 | 0.00 | 0.00 | 0.00 | 51 | 1018.0 |
| 20260905113206 | 76 | 293 | 9.0 | 17.0 | 0.00 | 0.00 | 0.00 | 53 | 1017.9 |
| 20260905112710 | 76 | 296 | 7.0 | 10.0 | 0.00 | 0.00 | 0.00 | 53 | 1017.9 |
| 20260905112209 | 75 | 341 | 3.0 | 8.0 | 0.00 | 0.00 | 0.00 | 55 | 1017.9 |
| 20260905111219 | 74 | 331 | 3.0 | 8.0 | 0.00 | 0.00 | 0.00 | 59 | 1018.2 |
| 20260905110716 | 73 | 23 | 3.0 | 8.0 | 0.00 | 0.00 | 0.00 | 59 | 1018.3 |
| 20260905110212 | 72 | 40 | 2.0 | 4.0 | 0.00 | 0.00 | 0.00 | 60 | 1018.2 |
| 20260905105211 | 72 | 74 | 2.0 | 5.0 | 0.00 | 0.00 | 0.00 | 59 | 1018.3 |
| 20260905104713 | 71 | 350 | 2.0 | 7.0 | 0.00 | 0.00 | 0.00 | 60 | 1018.3 |
| 20260905104208 | 71 | 89 | 3.0 | 8.0 | 0.00 | 0.00 | 0.00 | 61 | 1018.3 |
| 20260905103708 | 71 | 74 | 3.0 | 8.0 | 0.00 | 0.00 | 0.00 | 62 | 1018.3 |
| 20260905101713 | 70 | 256 | 6.0 | 10.0 | 0.00 | 0.00 | 0.00 | 63 | 1018.4 |
| 20260905101230 | 70 | 254 | 5.0 | 11.0 | 0.00 | 0.00 | 0.00 | 63 | 1018.3 |
| 20260905100705 | 69 | 221 | 6.0 | 11.0 | 0.00 | 0.00 | 0.00 | 64 | 1018.3 |
| 20260905100232 | 69 | 258 | 6.0 | 11.0 | 0.00 | 0.00 | 0.00 | 64 | 1018.5 |
| 20260905095242 | 69 | 255 | 3.0 | 12.0 | 0.00 | 0.00 | 0.00 | 64 | 1018.4 |
| 20260905094745 | 69 | 305 | 5.0 | 13.0 | 0.00 | 0.00 | 0.00 | 63 | 1018.5 |
| 20260905093719 | 70 | 250 | 9.0 | 13.0 | 0.00 | 0.00 | 0.00 | 63 | 1018.7 |
| 20260905092215 | 70 | 281 | 5.0 | 17.0 | 0.00 | 0.00 | 0.00 | 62 | 1018.6 |
| 20260905091707 | 70 | 298 | 3.0 | 10.0 | 0.00 | 0.00 | 0.00 | 62 | 1018.6 |
| 20260905090715 | 69 | 219 | 3.0 | 10.0 | 0.00 | 0.00 | 0.00 | 63 | 1018.7 |
| 20260905090210 | 69 | 213 | 2.0 | 5.0 | 0.00 | 0.00 | 0.00 | 63 | 1018.7 |
| 20260905085708 | 69 | 265 | 2.0 | 6.0 | 0.00 | 0.00 | 0.00 | 63 | 1018.7 |
| 20260905084709 | 68 | 315 | 3.0 | 10.0 | 0.00 | 0.00 | 0.00 | 62 | 1018.8 |
| 20260905084212 | 68 | 5 | 3.0 | 12.0 | 0.00 | 0.00 | 0.00 | 63 | 1018.7 |
| 20260905083711 | 68 | 5 | 4.0 | 12.0 | 0.00 | 0.00 | 0.00 | 63 | 1018.9 |
| 20260905083209 | 68 | 5 | 5.0 | 13.0 | 0.00 | 0.00 | 0.00 | 62 | 1019.0 |
| 20260905082709 | 68 | 355 | 6.0 | 13.0 | 0.00 | 0.00 | 0.00 | 62 | 1019.0 |
| 20260905082212 | 68 | 349 | 6.0 | 11.0 | 0.00 | 0.00 | 0.00 | 62 | 1018.9 |
| 20260905081706 | 68 | 324 | 6.0 | 11.0 | 0.00 | 0.00 | 0.00 | 62 | 1018.9 |
| 20260905081215 | 67 | 30 | 5.0 | 11.0 | 0.00 | 0.00 | 0.00 | 62 | 1019.0 |
| 20260905080713 | 67 | 59 | 6.0 | 12.0 | 0.00 | 0.00 | 0.00 | 63 | 1019.1 |
| 20260905080218 | 67 | 345 | 6.0 | 14.0 | 0.00 | 0.00 | 0.00 | 62 | 1019.1 |
| 20260905075211 | 67 | 323 | 7.0 | 15.0 | 0.00 | 0.00 | 0.00 | 62 | 1019.2 |
| 20260905074719 | 67 | 297 | 7.0 | 15.0 | 0.00 | 0.00 | 0.00 | 62 | 1019.2 |
| 20260905074221 | 67 | 312 | 9.0 | 15.0 | 0.00 | 0.00 | 0.00 | 61 | 1019.2 |
| 20260905073713 | 67 | 311 | 8.0 | 16.0 | 0.00 | 0.00 | 0.00 | 61 | 1019.2 |
| 20260905073210 | 67 | 347 | 7.0 | 16.0 | 0.00 | 0.00 | 0.00 | 61 | 1019.3 |
| 20260905072216 | 67 | 332 | 6.0 | 11.0 | 0.00 | 0.00 | 0.00 | 61 | 1019.5 |
| 20260905071716 | 67 | 305 | 6.0 | 11.0 | 0.00 | 0.00 | 0.00 | 61 | 1019.3 |
| 20260905071210 | 67 | 321 | 7.0 | 11.0 | 0.00 | 0.00 | 0.00 | 61 | 1019.2 |
| 20260905070718 | 67 | 325 | 6.0 | 11.0 | 0.00 | 0.00 | 0.00 | 61 | 1019.1 |
| 20260905070207 | 67 | 350 | 5.0 | 19.0 | 0.00 | 0.00 | 0.00 | 61 | 1019.0 |
| 20260905065715 | 67 | 348 | 6.0 | 19.0 | 0.00 | 0.00 | 0.00 | 61 | 1018.9 |
| 20260905064713 | 67 | 9 | 10.0 | 17.0 | 0.00 | 0.00 | 0.00 | 60 | 1019.4 |
| 20260905064234 | 67 | 306 | 9.0 | 16.0 | 0.00 | 0.00 | 0.00 | 61 | 1019.6 |
| 20260905063714 | 67 | 327 | 10.0 | 16.0 | 0.00 | 0.00 | 0.00 | 61 | 1019.3 |
| 20260905063219 | 67 | 329 | 10.0 | 20.0 | 0.00 | 0.00 | 0.00 | 61 | 1019.0 |
| 20260905062214 | 67 | 40 | 10.0 | 20.0 | 0.00 | 0.00 | 0.00 | 60 | 1018.5 |
| 20260905061711 | 67 | 350 | 9.0 | 15.0 | 0.00 | 0.00 | 0.00 | 59 | 1018.2 |
| 20260905061215 | 67 | 36 | 9.0 | 18.0 | 0.00 | 0.00 | 0.00 | 60 | 1018.4 |
| 20260905060718 | 67 | 355 | 9.0 | 18.0 | 0.00 | 0.00 | 0.00 | 59 | 1018.2 |
| 20260905060214 | 67 | 10 | 8.0 | 18.0 | 0.00 | 0.00 | 0.00 | 60 | 1018.2 |
| 20260905055218 | 67 | 19 | 8.0 | 18.0 | 0.00 | 0.00 | 0.00 | 61 | 1017.9 |
| 20260905054709 | 67 | 349 | 8.0 | 14.0 | 0.00 | 0.00 | 0.00 | 62 | 1018.0 |
| 20260905054216 | 67 | 47 | 7.0 | 16.0 | 0.00 | 0.00 | 0.00 | 63 | 1017.8 |
| 20260905053707 | 67 | 14 | 9.0 | 16.0 | 0.00 | 0.00 | 0.00 | 63 | 1017.4 |
| 20260905053208 | 67 | 27 | 8.0 | 15.0 | 0.00 | 0.00 | 0.00 | 63 | 1017.0 |
| 20260905052710 | 67 | 38 | 8.0 | 15.0 | 0.00 | 0.00 | 0.00 | 64 | 1016.7 |
| 20260905052209 | 68 | 25 | 7.0 | 15.0 | 0.00 | 0.00 | 0.00 | 64 | 1016.5 |
| 20260905051718 | 67 | 348 | 6.0 | 13.0 | 0.00 | 0.00 | 0.00 | 64 | 1016.2 |
| 20260905051212 | 68 | 28 | 6.0 | 13.0 | 0.00 | 0.00 | 0.00 | 65 | 1016.1 |
| 20260905050719 | 68 | 36 | 6.0 | 14.0 | 0.00 | 0.00 | 0.00 | 65 | 1016.1 |
| 20260905050209 | 68 | 44 | 9.0 | 14.0 | 0.00 | 0.00 | 0.00 | 65 | 1015.9 |
| 20260905045708 | 68 | 13 | 9.0 | 14.0 | 0.00 | 0.00 | 0.00 | 65 | 1015.7 |
| 20260905045216 | 68 | 355 | 8.0 | 18.0 | 0.00 | 0.00 | 0.00 | 65 | 1015.5 |
| 20260905044718 | 68 | 15 | 9.0 | 20.0 | 0.00 | 0.00 | 0.00 | 64 | 1015.5 |
| 20260905043716 | 69 | 333 | 11.0 | 25.0 | 0.00 | 0.00 | 0.00 | 63 | 1015.4 |
| 20260905043216 | 69 | 5 | 13.0 | 25.0 | 0.00 | 0.00 | 0.00 | 62 | 1015.3 |
| 20260905042709 | 70 | 19 | 14.0 | 25.0 | 0.00 | 0.00 | 0.00 | 62 | 1014.9 |
| 20260905042212 | 71 | 19 | 14.0 | 28.0 | 0.00 | 0.00 | 0.00 | 63 | 1014.7 |
| 20260905041709 | 72 | 15 | 15.0 | 28.0 | 0.00 | 0.00 | 0.00 | 64 | 1014.5 |
| 20260905040710 | 74 | 323 | 13.0 | 24.0 | 0.00 | 0.00 | 0.00 | 65 | 1014.0 |
| 20260905040213 | 75 | 21 | 11.0 | 21.0 | 0.00 | 0.00 | 0.00 | 64 | 1013.7 |
| 20260905035708 | 75 | 75 | 10.0 | 20.0 | 0.00 | 0.00 | 0.00 | 63 | 1013.6 |
| 20260905035213 | 75 | 35 | 8.0 | 20.0 | 0.00 | 0.00 | 0.00 | 63 | 1013.3 |
| 20260905034708 | 74 | 13 | 8.0 | 17.0 | 0.00 | 0.00 | 0.00 | 64 | 1013.0 |
| 20260905033713 | 71 | 296 | 6.0 | 11.0 | 0.00 | 0.00 | 0.00 | 68 | 1012.6 |
| 20260905033213 | 70 | 5 | 4.0 | 11.0 | 0.00 | 0.00 | 0.00 | 69 | 1012.7 |
| 20260905032716 | 69 | 321 | 3.0 | 9.0 | 0.00 | 0.00 | 0.00 | 69 | 1012.8 |
| 20260905032210 | 69 | 261 | 3.0 | 9.0 | 0.00 | 0.00 | 0.00 | 69 | 1013.1 |
| 20260905031706 | 68 | 298 | 2.0 | 9.0 | 0.00 | 0.00 | 0.00 | 70 | 1013.2 |
| 20260905031218 | 68 | 355 | 2.0 | 8.0 | 0.00 | 0.00 | 0.00 | 69 | 1013.0 |
| 20260905030227 | 67 | 288 | 3.0 | 6.0 | 0.00 | 0.00 | 0.00 | 69 | 1013.0 |
| 20260905025711 | 67 | 263 | 4.0 | 6.0 | 0.00 | 0.00 | 0.00 | 69 | 1012.8 |
| 20260905024716 | 67 | 262 | 3.0 | 6.0 | 0.00 | 0.00 | 0.00 | 69 | 1012.8 |
| 20260905024220 | 67 | 238 | 3.0 | 5.0 | 0.00 | 0.00 | 0.00 | 69 | 1012.7 |
| 20260905023711 | 68 | 250 | 3.0 | 5.0 | 0.00 | 0.00 | 0.00 | 68 | 1012.6 |
| 20260905023214 | 68 | 250 | 3.0 | 5.0 | 0.00 | 0.00 | 0.00 | 68 | 1012.3 |
| 20260905022714 | 68 | 256 | 3.0 | 5.0 | 0.00 | 0.00 | 0.00 | 68 | 1012.3 |
| 20260905022211 | 68 | 252 | 3.0 | 5.0 | 0.00 | 0.00 | 0.00 | 67 | 1012.4 |
| 20260905021717 | 68 | 231 | 3.0 | 5.0 | 0.00 | 0.00 | 0.00 | 67 | 1012.4 |
| 20260905021207 | 68 | 243 | 3.0 | 4.0 | 0.00 | 0.00 | 0.00 | 67 | 1012.5 |
| 20260905020217 | 68 | 270 | 3.0 | 4.0 | 0.00 | 0.00 | 0.00 | 66 | 1012.3 |
| 20260905015718 | 69 | 263 | 3.0 | 4.0 | 0.00 | 0.00 | 0.00 | 67 | 1012.3 |
| 20260905015219 | 69 | 249 | 2.0 | 5.0 | 0.00 | 0.00 | 0.00 | 66 | 1012.2 |
| 20260905014711 | 69 | 268 | 3.0 | 5.0 | 0.00 | 0.00 | 0.00 | 66 | 1012.3 |
| 20260905014218 | 69 | 253 | 3.0 | 5.0 | 0.00 | 0.00 | 0.00 | 66 | 1012.3 |
| 20260905013717 | 69 | 246 | 2.0 | 7.0 | 0.00 | 0.00 | 0.00 | 66 | 1012.2 |
| 20260905013219 | 69 | 272 | 3.0 | 7.0 | 0.00 | 0.00 | 0.00 | 67 | 1012.1 |
| 20260905012206 | 69 | 275 | 4.0 | 9.0 | 0.00 | 0.00 | 0.00 | 67 | 1012.2 |
| 20260905011714 | 69 | 246 | 5.0 | 9.0 | 0.00 | 0.00 | 0.00 | 66 | 1012.1 |
| 20260905011217 | 69 | 225 | 6.0 | 9.0 | 0.00 | 0.00 | 0.00 | 66 | 1012.2 |
| 20260905010204 | 69 | 249 | 5.0 | 10.0 | 0.00 | 0.00 | 0.00 | 66 | 1012.2 |
| 20260905005710 | 69 | 226 | 6.0 | 11.0 | 0.00 | 0.00 | 0.00 | 66 | 1012.2 |
| 20260905005219 | 69 | 227 | 7.0 | 11.0 | 0.00 | 0.00 | 0.00 | 66 | 1012.1 |
| 20260905004207 | 69 | 231 | 6.0 | 10.0 | 0.00 | 0.00 | 0.00 | 66 | 1012.1 |
| 20260905003707 | 69 | 239 | 7.0 | 10.0 | 0.00 | 0.00 | 0.00 | 66 | 1012.1 |
| 20260905003214 | 69 | 254 | 7.0 | 10.0 | 0.00 | 0.00 | 0.00 | 65 | 1012.0 |
| 20260905002210 | 69 | 254 | 6.0 | 11.0 | 0.00 | 0.00 | 0.00 | 65 | 1012.0 |
| 20260905001726 | 69 | 248 | 7.0 | 11.0 | 0.00 | 0.00 | 0.00 | 65 | 1011.9 |
| 20260905001211 | 69 | 256 | 7.0 | 11.0 | 0.00 | 0.00 | 0.00 | 65 | 1011.9 |
| 20260905000717 | 69 | 246 | 6.0 | 9.0 | 0.00 | 0.00 | 0.00 | 65 | 1012.0 |
| 20260905000212 | 69 | 249 | 6.0 | 9.0 | 0.00 | 0.00 | 0.00 | 64 | 1012.0 |
| 20260904235711 | 70 | 261 | 6.0 | 9.0 | 0.00 | 0.00 | 0.00 | 63 | 1012.0 |
| 20260904235215 | 70 | 254 | 5.0 | 9.0 | 0.00 | 0.00 | 0.00 | 63 | 1012.0 |
| 20260904234712 | 70 | 252 | 6.0 | 10.0 | 0.00 | 0.00 | 0.00 | 63 | 1012.0 |
| 20260904234212 | 70 | 236 | 6.0 | 10.0 | 0.00 | 0.00 | 0.00 | 63 | 1011.9 |
| 20260904233718 | 70 | 254 | 6.0 | 10.0 | 0.00 | 0.00 | 0.00 | 62 | 1011.9 |
| 20260904233210 | 70 | 257 | 6.0 | 9.0 | 0.00 | 0.00 | 0.00 | 63 | 1011.9 |
| 20260904232715 | 70 | 257 | 6.0 | 9.0 | 0.00 | 0.00 | 0.00 | 63 | 1011.9 |
| 20260904232244 | 71 | 236 | 6.0 | 9.0 | 0.00 | 0.00 | 0.00 | 63 | 1011.9 |
| 20260904231719 | 71 | 252 | 6.0 | 9.0 | 0.00 | 0.00 | 0.00 | 63 | 1011.8 |
| 20260904231212 | 71 | 244 | 5.0 | 9.0 | 0.00 | 0.00 | 0.00 | 62 | 1011.8 |
| 20260904230719 | 71 | 215 | 5.0 | 8.0 | 0.00 | 0.00 | 0.00 | 62 | 1011.8 |
| 20260904230209 | 71 | 227 | 5.0 | 10.0 | 0.00 | 0.00 | 0.00 | 62 | 1011.8 |
| 20260904225717 | 71 | 236 | 5.0 | 10.0 | 0.00 | 0.00 | 0.00 | 62 | 1011.8 |
| 20260904225206 | 71 | 238 | 7.0 | 10.0 | 0.00 | 0.00 | 0.00 | 63 | 1011.8 |
| 20260904224213 | 70 | 250 | 6.0 | 10.0 | 0.00 | 0.00 | 0.00 | 63 | 1011.8 |
| 20260904223717 | 70 | 234 | 5.0 | 8.0 | 0.00 | 0.00 | 0.00 | 64 | 1011.8 |
| 20260904223209 | 70 | 240 | 5.0 | 8.0 | 0.00 | 0.00 | 0.00 | 64 | 1011.7 |
| 20260904222717 | 70 | 244 | 5.0 | 8.0 | 0.00 | 0.00 | 0.00 | 64 | 1011.7 |
| 20260904222212 | 70 | 240 | 5.0 | 5.0 | 0.00 | 0.00 | 0.00 | 64 | 1011.7 |
| 20260904221708 | 70 | 228 | 3.0 | 7.0 | 0.00 | 0.00 | 0.00 | 64 | 1011.7 |
| 20260904221210 | 71 | 254 | 3.0 | 7.0 | 0.00 | 0.00 | 0.00 | 64 | 1011.7 |
| 20260904220210 | 71 | 259 | 4.0 | 7.0 | 0.00 | 0.00 | 0.00 | 63 | 1011.7 |
| 20260904215717 | 71 | 258 | 3.0 | 6.0 | 0.00 | 0.00 | 0.00 | 63 | 1011.7 |
| 20260904215213 | 71 | 229 | 3.0 | 6.0 | 0.00 | 0.00 | 0.00 | 63 | 1011.7 |
| 20260904214705 | 71 | 273 | 3.0 | 6.0 | 0.00 | 0.00 | 0.00 | 62 | 1011.6 |
| 20260904213715 | 72 | 262 | 3.0 | 7.0 | 0.00 | 0.00 | 0.00 | 62 | 1011.6 |
| 20260904213204 | 72 | 271 | 4.0 | 7.0 | 0.00 | 0.00 | 0.00 | 62 | 1011.5 |
| 20260904212719 | 72 | 248 | 4.0 | 7.0 | 0.00 | 0.00 | 0.00 | 61 | 1011.5 |
| 20260904212204 | 72 | 254 | 4.0 | 7.0 | 0.00 | 0.00 | 0.00 | 61 | 1011.5 |
| 20260904211709 | 73 | 257 | 4.0 | 7.0 | 0.00 | 0.00 | 0.00 | 60 | 1011.5 |
| 20260904211207 | 73 | 246 | 4.0 | 7.0 | 0.00 | 0.00 | 0.00 | 59 | 1011.4 |
| 20260904210219 | 74 | 271 | 4.0 | 7.0 | 0.00 | 0.00 | 0.00 | 59 | 1011.5 |
| 20260904205717 | 74 | 260 | 4.0 | 7.0 | 0.00 | 0.00 | 0.00 | 58 | 1011.5 |
| 20260904205214 | 75 | 251 | 4.0 | 5.0 | 0.00 | 0.00 | 0.00 | 58 | 1011.4 |
| 20260904204213 | 76 | 230 | 2.0 | 4.0 | 0.00 | 0.00 | 0.00 | 57 | 1011.4 |
| 20260904201716 | 77 | 244 | 4.0 | 8.0 | 0.00 | 0.00 | 0.00 | 55 | 1011.4 |
| 20260904201242 | 77 | 240 | 5.0 | 8.0 | 0.00 | 0.00 | 0.00 | 55 | 1011.4 |
| 20260904200716 | 78 | 240 | 3.0 | 8.0 | 0.00 | 0.00 | 0.00 | 55 | 1011.4 |
| 20260904195712 | 78 | 286 | 4.0 | 9.0 | 0.00 | 0.00 | 0.00 | 54 | 1011.3 |
| 20260904194717 | 78 | 206 | 5.0 | 10.0 | 0.00 | 0.00 | 0.00 | 54 | 1011.2 |
| 20260904194211 | 78 | 226 | 5.0 | 10.0 | 0.00 | 0.00 | 0.00 | 54 | 1011.2 |
| 20260904193719 | 78 | 221 | 5.0 | 10.0 | 0.00 | 0.00 | 0.00 | 54 | 1011.1 |
| 20260904193207 | 78 | 201 | 6.0 | 10.0 | 0.00 | 0.00 | 0.00 | 53 | 1011.1 |
| 20260904192714 | 78 | 217 | 6.0 | 10.0 | 0.00 | 0.00 | 0.00 | 53 | 1011.1 |
| 20260904192205 | 79 | 188 | 5.0 | 9.0 | 0.00 | 0.00 | 0.00 | 53 | 1011.1 |
| 20260904191219 | 79 | 191 | 5.0 | 10.0 | 0.00 | 0.00 | 0.00 | 53 | 1011.1 |
| 20260904190213 | 79 | 198 | 5.0 | 10.0 | 0.00 | 0.00 | 0.00 | 52 | 1011.2 |
| 20260904185213 | 80 | 207 | 5.0 | 10.0 | 0.00 | 0.00 | 0.00 | 52 | 1011.3 |
| 20260904184708 | 80 | 199 | 6.0 | 10.0 | 0.00 | 0.00 | 0.00 | 51 | 1011.3 |
| 20260904184207 | 80 | 208 | 7.0 | 11.0 | 0.00 | 0.00 | 0.00 | 51 | 1011.4 |
| 20260904183718 | 80 | 205 | 6.0 | 11.0 | 0.00 | 0.00 | 0.00 | 51 | 1011.4 |
| 20260904183214 | 80 | 218 | 6.0 | 10.0 | 0.00 | 0.00 | 0.00 | 51 | 1011.4 |
| 20260904182212 | 81 | 189 | 5.0 | 9.0 | 0.00 | 0.00 | 0.00 | 50 | 1011.2 |
| 20260904181708 | 81 | 211 | 5.0 | 9.0 | 0.00 | 0.00 | 0.00 | 50 | 1011.3 |
| 20260904181207 | 81 | 209 | 4.0 | 9.0 | 0.00 | 0.00 | 0.00 | 50 | 1011.3 |
| 20260904180707 | 82 | 204 | 4.0 | 9.0 | 0.00 | 0.00 | 0.00 | 49 | 1011.3 |
| 20260904180208 | 82 | 178 | 4.0 | 9.0 | 0.00 | 0.00 | 0.00 | 49 | 1011.3 |
| 20260904175716 | 82 | 198 | 4.0 | 9.0 | 0.00 | 0.00 | 0.00 | 49 | 1011.2 |
| 20260904175214 | 82 | 150 | 4.0 | 8.0 | 0.00 | 0.00 | 0.00 | 48 | 1011.1 |
| 20260904174713 | 83 | 215 | 4.0 | 9.0 | 0.00 | 0.00 | 0.00 | 48 | 1011.2 |
| 20260904173711 | 83 | 241 | 4.0 | 9.0 | 0.00 | 0.00 | 0.00 | 47 | 1011.2 |
| 20260904173207 | 83 | 239 | 4.0 | 8.0 | 0.00 | 0.00 | 0.00 | 47 | 1011.3 |
| 20260904172721 | 84 | 209 | 4.0 | 9.0 | 0.00 | 0.00 | 0.00 | 46 | 1011.4 |
| 20260904172215 | 84 | 183 | 4.0 | 9.0 | 0.00 | 0.00 | 0.00 | 46 | 1011.3 |
| 20260904171715 | 84 | 192 | 4.0 | 8.0 | 0.00 | 0.00 | 0.00 | 46 | 1011.3 |
| 20260904170711 | 85 | 190 | 4.0 | 7.0 | 0.00 | 0.00 | 0.00 | 44 | 1011.4 |
| 20260904170208 | 85 | 201 | 4.0 | 7.0 | 0.00 | 0.00 | 0.00 | 44 | 1011.4 |
| 20260904165706 | 85 | 157 | 4.0 | 7.0 | 0.00 | 0.00 | 0.00 | 44 | 1011.3 |
| 20260904165212 | 85 | 188 | 3.0 | 12.0 | 0.00 | 0.00 | 0.00 | 44 | 1011.5 |
| 20260904164718 | 86 | 163 | 3.0 | 12.0 | 0.00 | 0.00 | 0.00 | 43 | 1011.4 |
| 20260904164217 | 86 | 199 | 4.0 | 12.0 | 0.00 | 0.00 | 0.00 | 43 | 1011.5 |